This demonstration page uses our WeatherBlox Daily Observations layout. Learn more.

Hourly Observations for October 18, 2018

Temp ( °F °C ) Dew Point ( °F °C ) Humidity (%) Winds ( mph kmh ) Pressure ( in mb ) Visibility ( mi km ) Precip ( " mm )
12:15 am 00:15 Clear 49 9.3 38 3.5 67 67 SSW 10 17 30.48 1032 10 16.09344 0 0
12:35 am 00:35 Clear 49 9.3 38 3.5 67 67 SSW 8 13 30.48 1032 10 16.09344 0 0
12:55 am 00:55 Clear 48 8.8 38 3.3 69 69 S 8 13 30.48 1032 10 16.09344 0 0
1:15 am 01:15 Clear 47 8.6 38 3.4 70 70 S 8 13 30.48 1032 10 16.09344 0 0
1:35 am 01:35 Clear 47 8.5 38 3.2 70 70 SSW 7 11 30.48 1032 10 16.09344 0 0
1:55 am 01:55 Clear 46 7.7 38 3.1 73 73 SSW 5 7 30.48 1032 10 16.09344 0 0
2:15 am 02:15 Clear 45 7.1 38 3.1 76 76 SSW 6 9 30.48 1032 10 16.09344 0 0
2:35 am 02:35 Clear 46 8 38 3.1 71 71 S 8 13 30.45 1031 10 16.09344 0 0
2:55 am 02:55 Clear 46 7.7 38 3.2 73 73 S 6 9 30.45 1031 10 16.09344 0 0
3:15 am 03:15 Clear 46 8 38 3.2 72 72 SSW 6 9 30.45 1031 10 16.09344 0 0
3:35 am 03:35 Clear 46 8 38 3.3 72 72 S 5 7 30.45 1031 10 16.09344 0 0
3:55 am 03:55 Clear 47 8.2 38 3.5 73 73 SSW 6 9 30.45 1031 10 16.09344 0 0
4:15 am 04:15 Clear 44 6.9 39 3.7 80 80 SSW 5 7 30.45 1031 10 16.09344 0 0
4:35 am 04:35 Clear 46 7.6 40 4.2 79 79 SW 5 7 30.45 1031 10 16.09344 0 0
4:55 am 04:55 Clear 46 7.8 40 4.5 80 80 SW 5 7 30.45 1031 10 16.09344 0 0
5:15 am 05:15 Clear 47 8.2 40 4.5 78 78 SSW 7 11 30.45 1031 10 16.09344 0 0
5:35 am 05:35 Clear 47 8.5 40 4.6 77 77 SSW 6 9 30.42 1030 10 16.09344 0 0
5:55 am 05:55 Clear 47 8.5 40 4.7 77 77 SSW 6 9 30.45 1031 10 16.09344 0 0
6:15 am 06:15 Clear 48 8.8 40 4.7 76 76 SSW 5 7 30.45 1031 10 16.09344 0 0
6:35 am 06:35 Clear 47 8.6 40 4.7 77 77 S 8 13 30.45 1031 10 16.09344 0 0
6:55 am 06:55 Clear 47 8.5 40 4.6 77 77 S 7 11 30.45 1031 10 16.09344 0 0
7:15 am 07:15 Clear 47 8.1 40 4.6 79 79 SSW 7 11 30.45 1031 10 16.09344 0 0
7:35 am 07:35 Clear 47 8.5 41 4.8 78 78 S 8 13 30.42 1030 10 16.09344 0 0
7:55 am 07:55 Sunny 47 8.5 41 4.9 78 78 S 6 9 30.42 1030 10 16.09344 0 0
8:15 am 08:15 Sunny 46 8 40 4.7 80 80 S 5 7 30.42 1030 10 16.09344 0 0
8:35 am 08:35 Sunny 46 7.5 40 4.6 82 82 SSW 5 7 30.42 1030 10 16.09344 0 0
8:55 am 08:55 Sunny 47 8.5 41 5.1 79 79 SSW 5 7 30.42 1030 10 16.09344 0 0
9:15 am 09:15 Sunny 49 9.6 42 5.3 75 75 S 8 13 30.39 1029 10 16.09344 0 0
9:35 am 09:35 Sunny 50 10 42 5.5 74 74 SSW 9 15 30.39 1029 10 16.09344 0 0
9:55 am 09:55 Sunny 54 12.1 44 6.5 69 69 SSW 13 20 30.39 1029 10 16.09344 0 0
10:15 am 10:15 Sunny 56 13.5 43 6.3 62 62 SSW 14 22 30.36 1028 10 16.09344 0 0
10:35 am 10:35 Sunny 57 13.9 43 6.1 60 60 SSW 16 26 30.36 1028 10 16.09344 0 0
10:55 am 10:55 Sunny 58 14.2 44 6.4 60 60 S 14 22 30.36 1028 10 16.09344 0 0
11:15 am 11:15 Sunny 59 15.1 44 6.5 57 57 SSW 17 28 30.36 1028 10 16.09344 0 0
11:35 am 11:35 Partly Cloudy 61 16 44 6.4 53 53 S 20 31 30.3 1026 10 16.09344 0 0
11:55 am 11:55 Mostly Cloudy 61 16.1 44 6.5 53 53 SSW 15 24 30.3 1026 10 16.09344 0 0
12:15 pm 12:15 Partly Cloudy 60 15.8 44 6.7 55 55 SSW 14 22 30.3 1026 10 16.09344 0 0
12:35 pm 12:35 Mostly Cloudy 61 15.9 44 6.8 55 55 SSW 15 24 30.3 1026 10 16.09344 0 0
12:55 pm 12:55 Partly Cloudy 64 17.5 44 6.6 49 49 SSW 24 39 30.3 1026 10 16.09344 0 0
1:15 pm 13:15 Sunny 64 17.6 43 6.3 48 48 SSW 21 33 30.27 1025 10 16.09344 0 0
1:35 pm 13:35 Sunny 65 18.2 44 6.6 47 47 SSW 20 31 30.27 1025 10 16.09344 0 0
1:55 pm 13:55 Sunny 64 18 43 6.3 47 47 SSW 25 41 30.24 1024 10 16.09344 0 0
2:15 pm 14:15 Sunny 65 18.6 43 6 44 44 SSW 24 39 30.24 1024 10 16.09344 0 0
2:35 pm 14:35 Sunny 66 18.7 41 5 41 41 S 22 35 30.21 1023 10 16.09344 0 0
2:55 pm 14:55 Sunny 64 17.9 42 5.5 44 44 SSW 22 35 30.21 1023 10 16.09344 0 0
3:15 pm 15:15 Sunny 64 17.6 42 5.7 46 46 S 22 35 30.21 1023 10 16.09344 0 0
3:35 pm 15:35 Sunny 63 17.2 42 5.8 47 47 S 23 37 30.21 1023 10 16.09344 0 0
3:55 pm 15:55 Partly Cloudy 62 16.6 42 5.5 48 48 SSW 22 35 30.21 1023 10 16.09344 0 0
4:15 pm 16:15 Mostly Cloudy 62 16.5 43 6 50 50 SSW 18 30 30.21 1023 10 16.09344 0 0
4:35 pm 16:35 Cloudy with Light Rain 61 16.2 45 7 55 55 SSW 14 22 30.18 1022 10 16.09344 0 0
4:55 pm 16:55 Partly Cloudy 64 17.5 43 6.3 48 48 SW 16 26 30.18 1022 10 16.09344 0 0
5:15 pm 17:15 Sunny 62 16.7 43 6.3 50 50 S 16 26 30.18 1022 10 16.09344 0 0
5:35 pm 17:35 Mostly Cloudy 62 16.6 43 5.9 49 49 SSW 16 26 30.18 1022 10 16.09344 0 0
5:55 pm 17:55 Cloudy 62 16.8 42 5.8 48 48 S 13 20 30.15 1021 10 16.09344 0 0
6:15 pm 18:15 Cloudy 62 16.7 42 5.8 49 49 S 16 26 30.15 1021 10 16.09344 0 0
6:35 pm 18:35 Cloudy 61 16.3 42 5.6 49 49 SSW 16 26 30.15 1021 10 16.09344 0 0
6:55 pm 18:55 Cloudy 60 15.4 42 5.7 53 53 S 12 19 30.15 1021 10 16.09344 0 0
7:15 pm 19:15 Cloudy 59 14.9 42 5.5 54 54 SSW 12 19 30.15 1021 10 16.09344 0 0
7:35 pm 19:35 Mostly Cloudy 58 14.5 41 5 53 53 SSW 12 19 30.15 1021 10 16.09344 0 0
7:55 pm 19:55 Cloudy 58 14.5 41 5 53 53 SSW 15 24 30.15 1021 10 16.09344 0 0
8:15 pm 20:15 Cloudy 57 14 41 5.1 55 55 SSW 8 13 30.18 1022 10 16.09344 0 0
8:35 pm 20:35 Cloudy 57 14 42 5.5 57 57 SW 12 19 30.18 1022 10 16.09344 0 0
8:55 pm 20:55 Cloudy 56 13.5 43 6 61 61 S 9 15 30.18 1022 10 16.09344 0 0
9:15 pm 21:15 Cloudy 56 13.3 43 6.1 62 62 S 9 15 30.15 1021 10 16.09344 0 0
9:35 pm 21:35 Cloudy 56 13.5 43 6 61 61 S 12 19 30.15 1021 10 16.09344 0 0
9:55 pm 21:55 Cloudy 56 13.2 43 6 62 62 S 10 17 30.15 1021 10 16.09344 0 0
10:15 pm 22:15 Cloudy with Light Rain 53 11.6 46 7.5 76 76 S 8 13 30.15 1021 10 16.09344 0 0
10:35 pm 22:35 Mostly Cloudy 52 11.3 45 7 75 75 S 8 13 30.12 1020 10 16.09344 0 0
10:55 pm 22:55 Mostly Cloudy 52 11.3 45 7 75 75 S 9 15 30.12 1020 10 16.09344 0 0
11:15 pm 23:15 Cloudy with Light Rain 52 11.3 46 8 80 80 S 13 20 30.12 1020 10 16.09344 0 0
11:35 pm 23:35 Cloudy with Rain 51 10.5 48 8.7 89 89 SW 8 13 30.12 1020 7 11.265408 0.02 0.508
11:55 pm 23:55 Cloudy with Rain 51 10.7 48 8.7 88 88 SSW 9 15 30.12 1020 10 16.09344 0.02 0.508

Powered by AerisWeather